TimeCST,TemperatureF,Dew PointF,Humidity,Sea Level PressureIn,VisibilityMPH,Wind Direction,Wind SpeedMPH,Gust SpeedMPH,PrecipitationIn,Events,Conditions,WindDirDegrees,DateUTC
12:15 AM,24.8,23.0,93,29.82,6.0,North,13.8,-,N/A,,Clear,350,2013-02-27 06:15:00
12:35 AM,24.8,23.0,93,29.82,6.0,NNW,15.0,-,N/A,,Clear,340,2013-02-27 06:35:00
12:55 AM,24.8,23.0,93,29.81,6.0,NNW,13.8,21.9,N/A,,Clear,340,2013-02-27 06:55:00
1:15 AM,23.0,21.2,93,29.82,5.0,NNW,16.1,21.9,N/A,,Partly Cloudy,340,2013-02-27 07:15:00
1:35 AM,23.0,21.2,93,29.81,5.0,NNW,15.0,25.3,N/A,,Clear,340,2013-02-27 07:35:00
1:55 AM,23.0,21.2,93,29.81,5.0,NNW,15.0,23.0,N/A,,Partly Cloudy,340,2013-02-27 07:55:00
2:15 AM,23.0,21.2,93,29.81,6.0,NNW,17.3,-,N/A,,Partly Cloudy,330,2013-02-27 08:15:00
2:35 AM,23.0,21.2,93,29.81,6.0,NNW,15.0,23.0,N/A,,Mostly Cloudy,340,2013-02-27 08:35:00
2:55 AM,23.0,21.2,93,29.81,7.0,NNW,15.0,23.0,N/A,,Overcast,340,2013-02-27 08:55:00
3:15 AM,23.0,21.2,93,29.81,7.0,NNW,16.1,-,N/A,,Overcast,330,2013-02-27 09:15:00
3:35 AM,23.0,21.2,93,29.81,8.0,NNW,16.1,24.2,N/A,,Overcast,340,2013-02-27 09:35:00
3:55 AM,23.0,21.2,93,29.81,7.0,North,17.3,-,N/A,,Overcast,350,2013-02-27 09:55:00
4:15 AM,23.0,21.2,93,29.81,8.0,North,15.0,-,N/A,,Overcast,350,2013-02-27 10:15:00
4:35 AM,23.0,19.4,86,29.82,7.0,North,17.3,23.0,N/A,,Overcast,350,2013-02-27 10:35:00
4:55 AM,23.0,19.4,86,29.82,8.0,North,16.1,23.0,N/A,,Overcast,350,2013-02-27 10:55:00
5:15 AM,23.0,19.4,86,29.82,8.0,North,16.1,23.0,N/A,,Overcast,350,2013-02-27 11:15:00
5:35 AM,23.0,19.4,86,29.82,8.0,NNW,15.0,23.0,N/A,,Overcast,340,2013-02-27 11:35:00
6:15 AM,23.0,19.4,86,29.82,10.0,NNW,15.0,-,N/A,,Overcast,340,2013-02-27 12:15:00
6:35 AM,23.0,19.4,86,29.83,10.0,North,15.0,-,N/A,,Overcast,350,2013-02-27 12:35:00
6:55 AM,23.0,19.4,86,29.83,7.0,North,16.1,-,N/A,,Overcast,350,2013-02-27 12:55:00
7:15 AM,23.0,21.2,93,29.83,7.0,North,17.3,-,N/A,,Overcast,350,2013-02-27 13:15:00
7:35 AM,23.0,21.2,93,29.84,7.0,North,15.0,20.7,N/A,,Overcast,350,2013-02-27 13:35:00
7:55 AM,23.0,19.4,86,29.84,7.0,North,17.3,-,N/A,,Overcast,350,2013-02-27 13:55:00
8:15 AM,23.0,21.2,93,29.85,7.0,North,13.8,23.0,N/A,,Overcast,350,2013-02-27 14:15:00
8:35 AM,23.0,21.2,93,29.85,7.0,NNW,17.3,24.2,N/A,,Overcast,340,2013-02-27 14:35:00
8:55 AM,23.0,21.2,93,29.86,7.0,North,16.1,23.0,N/A,,Overcast,350,2013-02-27 14:55:00
9:15 AM,23.0,21.2,93,29.85,7.0,North,16.1,-,N/A,,Overcast,350,2013-02-27 15:15:00
9:35 AM,24.8,21.2,86,29.86,8.0,North,15.0,-,N/A,,Overcast,350,2013-02-27 15:35:00
9:55 AM,24.8,21.2,86,29.86,8.0,North,16.1,24.2,N/A,,Overcast,350,2013-02-27 15:55:00
10:15 AM,24.8,21.2,86,29.86,9.0,NNW,18.4,24.2,N/A,,Overcast,340,2013-02-27 16:15:00
10:35 AM,24.8,21.2,86,29.87,9.0,North,16.1,24.2,N/A,,Overcast,350,2013-02-27 16:35:00
11:15 AM,24.8,23.0,93,29.88,10.0,NNW,12.7,23.0,N/A,,Overcast,340,2013-02-27 17:15:00
11:35 AM,24.8,21.2,86,29.88,9.0,NNW,16.1,23.0,N/A,,Overcast,340,2013-02-27 17:35:00
12:15 PM,26.6,23.0,86,29.88,10.0,NNW,17.3,26.5,N/A,,Overcast,340,2013-02-27 18:15:00
12:35 PM,26.6,23.0,86,29.88,10.0,NNW,16.1,23.0,N/A,,Overcast,340,2013-02-27 18:35:00
12:55 PM,26.6,23.0,86,29.87,9.0,North,20.7,31.1,N/A,,Overcast,360,2013-02-27 18:55:00
1:15 PM,28.4,23.0,80,29.88,10.0,North,17.3,25.3,N/A,,Overcast,350,2013-02-27 19:15:00
1:35 PM,28.4,23.0,80,29.87,10.0,NNW,13.8,-,N/A,,Mostly Cloudy,340,2013-02-27 19:35:00
1:55 PM,28.4,23.0,80,29.87,10.0,North,16.1,-,N/A,,Partly Cloudy,350,2013-02-27 19:55:00
2:15 PM,30.2,24.8,80,29.86,10.0,NNW,18.4,-,N/A,,Clear,340,2013-02-27 20:15:00
2:35 PM,30.2,24.8,80,29.87,10.0,NNW,15.0,23.0,N/A,,Clear,340,2013-02-27 20:35:00
2:55 PM,30.2,24.8,80,29.87,10.0,NNW,16.1,27.6,N/A,,Clear,340,2013-02-27 20:55:00
3:15 PM,30.2,24.8,80,29.87,10.0,NNW,16.1,-,N/A,,Clear,340,2013-02-27 21:15:00
3:35 PM,30.2,24.8,80,29.88,10.0,NNW,13.8,23.0,N/A,,Mostly Cloudy,340,2013-02-27 21:35:00
3:55 PM,30.2,24.8,80,29.88,10.0,North,16.1,23.0,N/A,,Scattered Clouds,350,2013-02-27 21:55:00
4:15 PM,30.2,24.8,80,29.89,10.0,North,16.1,-,N/A,,Partly Cloudy,350,2013-02-27 22:15:00
4:35 PM,30.2,24.8,80,29.90,10.0,North,16.1,-,N/A,,Partly Cloudy,350,2013-02-27 22:35:00
4:55 PM,30.2,23.0,75,29.90,10.0,NNW,15.0,25.3,N/A,,Clear,340,2013-02-27 22:55:00
5:15 PM,30.2,24.8,80,29.89,10.0,NNW,15.0,25.3,N/A,,Clear,340,2013-02-27 23:15:00
5:35 PM,30.2,24.8,80,29.90,10.0,NNW,15.0,26.5,N/A,,Clear,340,2013-02-27 23:35:00
5:55 PM,30.2,23.0,75,29.91,10.0,NNW,16.1,24.2,N/A,,Clear,340,2013-02-27 23:55:00
6:15 PM,28.4,24.8,86,29.91,10.0,NNW,21.9,29.9,N/A,Snow,Light Snow,340,2013-02-28 00:15:00
6:35 PM,28.4,24.8,86,29.92,10.0,NNW,19.6,25.3,N/A,Snow,Light Snow,330,2013-02-28 00:35:00
6:55 PM,26.6,23.0,86,29.93,10.0,NNW,18.4,27.6,N/A,Snow,Light Snow,340,2013-02-28 00:55:00
7:15 PM,24.8,23.0,93,29.93,10.0,NNW,21.9,28.8,N/A,Snow,Light Snow,330,2013-02-28 01:15:00
7:35 PM,24.8,21.2,86,29.94,10.0,NNW,23.0,-,N/A,Snow,Light Snow,330,2013-02-28 01:35:00
8:15 PM,23.0,21.2,93,29.95,10.0,NNW,17.3,27.6,N/A,Snow,Light Snow,340,2013-02-28 02:15:00
8:35 PM,23.0,19.4,86,29.95,10.0,NNW,16.1,24.2,N/A,Snow,Light Snow,340,2013-02-28 02:35:00
8:55 PM,21.2,19.4,93,29.96,10.0,North,15.0,20.7,N/A,,Clear,350,2013-02-28 02:55:00
9:15 PM,21.2,19.4,93,29.97,10.0,North,16.1,23.0,N/A,,Clear,350,2013-02-28 03:15:00
9:35 PM,21.2,19.4,93,29.97,10.0,NNW,17.3,25.3,N/A,,Clear,340,2013-02-28 03:35:00
9:55 PM,21.2,19.4,93,29.97,10.0,NNW,17.3,25.3,N/A,Snow,Light Snow,340,2013-02-28 03:55:00
10:35 PM,21.2,19.4,93,29.98,10.0,NNW,17.3,27.6,N/A,Snow,Light Snow,340,2013-02-28 04:35:00
10:55 PM,21.2,19.4,93,29.98,10.0,NNW,18.4,25.3,N/A,Snow,Light Snow,340,2013-02-28 04:55:00
11:15 PM,21.2,19.4,93,29.98,10.0,North,18.4,26.5,N/A,Snow,Light Snow,350,2013-02-28 05:15:00
11:35 PM,21.2,19.4,93,29.99,10.0,North,17.3,24.2,N/A,,Partly Cloudy,350,2013-02-28 05:35:00
11:55 PM,21.2,19.4,93,29.99,10.0,North,17.3,23.0,N/A,,Mostly Cloudy,350,2013-02-28 05:55:00